Satellite-Ground Cal/Val Site Overpasses Predictions

Prediction of Satellite NPP Overpassing Cal/Val Site: Antarctic Dome C

Ground Cal/Val Site Location: Latitude: -75.10, Longitude: 123.35; Satellite-Ground Site NADIR distance within 100 km.

Table of predicted overpasses for the next 14.0 days since TLE Epoch: 12/5/2014
Interval Starting Time Ending Time Minimum Distance Time Minimum Distance (km)
1 12/07/2014 15:03:05 12/07/2014 15:03:34 12/07/2014 15:03:19 17.85
2 12/08/2014 14:44:23 12/08/2014 14:44:36 12/08/2014 14:44:30 89.44
3 12/09/2014 07:45:54 12/09/2014 07:46:20 12/09/2014 07:46:07 42.87
4 12/10/2014 07:27:06 12/10/2014 07:27:27 12/10/2014 07:27:16 67.11
5 12/12/2014 15:09:19 12/12/2014 15:09:43 12/12/2014 15:09:31 54.88
6 12/13/2014 14:50:27 12/13/2014 14:50:52 12/13/2014 14:50:39 54.44
7 12/14/2014 07:52:09 12/14/2014 07:52:27 12/14/2014 07:52:18 78.19
8 12/15/2014 07:33:13 12/15/2014 07:33:41 12/15/2014 07:33:27 29.78
9 12/17/2014 15:15:35 12/17/2014 15:15:46 12/17/2014 15:15:41 92.72
